Total_Precipitation_Accumulation
0.22 0.20 0.20 0.23 0.26 0.29 0.35 0.41 0.48 0.64 0.77 0.85 0.95 1.12 1.29 1.47 1.62 1.74 1.64 1.50 1.46 1.63 1.75 1.69 1.77 1.79 1.67 1.67 1.72 1.77 1.71 1.45 1.32 1.40 1.30 1.03 0.80 0.87 0.86 0.83 0.88 0.94 1.04
0.16 0.12 0.10 0.12 0.16 0.18 0.22 0.28 0.36 0.46 0.59 0.74 0.97 1.17 1.46 1.55 1.64 1.78 1.82 1.76 1.70 1.85 1.89 1.98 2.05 2.09 2.08 2.04 1.93 2.00 2.10 1.83 1.62 1.74 2.03 1.63 1.22 0.88 0.71 0.80 0.84 0.94 1.18
0.12 0.08 0.08 0.08 0.12 0.13 0.15 0.21 0.34 0.47 0.68 0.91 1.23 1.51 1.74 1.82 1.87 1.82 1.89 1.97 2.02 2.08 2.11 2.17 2.23 2.24 2.10 2.09 2.18 2.27 2.60 2.41 2.06 1.88 2.14 1.95 1.62 1.32 0.91 0.84 0.89 0.97 1.14
0.12 0.10 0.10 0.10 0.10 0.13 0.18 0.29 0.46 0.65 0.91 1.25 1.60 1.84 2.06 2.16 2.00 1.98 2.02 2.03 1.98 2.01 2.13 2.14 2.14 2.11 2.05 2.12 2.18 2.21 2.59 2.77 2.48 2.16 1.83 1.62 1.59 1.66 1.36 1.00 0.95 1.03 1.06
0.18 0.16 0.18 0.18 0.21 0.27 0.34 0.50 0.74 1.04 1.31 1.54 1.72 1.94 2.07 2.09 2.06 2.02 2.01 1.94 1.91 1.88 1.91 1.93 2.02 2.05 2.10 2.15 2.31 2.41 2.63 2.66 2.67 2.49 2.31 2.10 1.81 1.47 1.50 1.43 1.18 1.14 1.06
0.23 0.24 0.26 0.32 0.39 0.44 0.57 0.74 0.92 1.21 1.39 1.50 1.62 1.80 1.95 2.00 2.01 2.00 1.99 1.98 1.96 1.86 1.79 1.76 1.83 1.95 2.11 2.17 2.25 2.39 2.62 2.72 2.80 2.74 2.48 2.39 2.22 1.93 1.80 1.55 1.40 1.40 1.21
0.31 0.31 0.41 0.55 0.63 0.67 0.75 0.89 0.98 1.15 1.26 1.31 1.39 1.53 1.60 1.67 1.72 1.71 1.68 1.62 1.58 1.57 1.59 1.67 1.76 1.89 2.01 2.10 2.21 2.35 2.39 2.50 2.74 2.75 2.59 2.38 2.17 2.14 2.04 1.92 1.61 1.44 1.27
0.47 0.57 0.71 0.80 0.87 0.87 0.84 0.86 0.99 1.04 1.02 1.04 1.05 1.17 1.26 1.32 1.39 1.39 1.39 1.42 1.46 1.46 1.40 1.44 1.54 1.77 1.97 2.05 2.15 2.16 2.13 2.18 2.37 2.37 2.44 2.41 2.12 2.06 1.97 1.96 2.04 1.76 1.57
0.72 0.93 1.11 1.22 1.29 1.20 1.01 0.87 0.88 0.87 0.85 0.90 0.94 0.98 1.07 1.12 1.15 1.18 1.14 1.24 1.28 1.27 1.21 1.23 1.27 1.40 1.63 1.89 2.05 1.99 1.91 1.87 2.03 2.10 2.19 2.30 2.31 2.23 2.13 2.10 2.15 2.09 1.84
1.16 1.40 1.64 1.76 1.73 1.53 1.26 0.98 0.82 0.79 0.76 0.79 0.84 0.89 0.93 0.95 0.94 0.98 0.92 0.98 1.08 1.07 1.07 1.07 1.12 1.25 1.36 1.57 1.80 1.90 1.84 1.81 1.86 1.97 2.10 2.23 2.33 2.38 2.19 2.15 2.12 1.98 1.88
1.58 1.73 1.87 1.91 1.65 1.48 1.24 0.97 0.82 0.84 0.86 0.85 0.84 0.84 0.82 0.80 0.79 0.78 0.75 0.78 0.85 0.84 0.87 1.04 1.09 1.16 1.24 1.41 1.67 1.85 1.86 1.78 1.79 1.78 1.86 2.03 2.12 2.34 2.31 2.23 2.12 1.99 1.82
1.33 1.40 1.46 1.41 1.36 1.32 1.15 0.99 0.91 0.91 0.95 0.94 0.94 0.87 0.79 0.75 0.74 0.72 0.63 0.63 0.61 0.60 0.71 0.84 0.89 0.93 0.98 1.17 1.46 1.66 1.69 1.66 1.57 1.56 1.68 1.91 2.08 2.29 2.39 2.34 2.20 2.11 1.98
1.15 1.15 1.15 1.16 1.18 1.16 1.04 1.03 1.00 1.00 1.01 0.98 0.88 0.80 0.73 0.65 0.60 0.53 0.49 0.55 0.57 0.63 0.75 0.84 0.89 0.91 0.97 1.00 1.10 1.26 1.38 1.36 1.31 1.34 1.41 1.47 1.67 1.96 2.14 2.16 2.18 2.21 2.19
0.92 0.91 0.95 1.00 1.08 1.05 1.02 0.97 0.92 0.96 1.07 1.12 1.01 0.90 0.79 0.69 0.63 0.54 0.50 0.49 0.52 0.59 0.68 0.75 0.81 0.89 0.94 0.95 0.95 0.97 1.04 1.05 1.10 1.16 1.21 1.26 1.30 1.53 1.72 1.81 2.00 2.23 2.24
0.62 0.65 0.69 0.69 0.66 0.62 0.66 0.69 0.75 0.85 1.01 1.14 1.13 0.98 0.80 0.67 0.60 0.56 0.50 0.48 0.49 0.50 0.57 0.64 0.68 0.74 0.83 0.92 0.94 0.81 0.77 0.83 0.94 0.97 0.95 0.97 1.04 1.18 1.28 1.36 1.72 2.06 2.24
0.39 0.37 0.37 0.38 0.37 0.34 0.31 0.31 0.38 0.53 0.79 1.04 1.02 0.80 0.63 0.51 0.46 0.47 0.47 0.43 0.42 0.47 0.52 0.52 0.56 0.67 0.71 0.85 0.84 0.67 0.64 0.67 0.77 0.86 0.86 0.76 0.75 0.80 0.87 0.95 1.13 1.41 1.66
0.28 0.27 0.25 0.24 0.24 0.22 0.21 0.22 0.30 0.42 0.59 0.70 0.67 0.57 0.46 0.44 0.47 0.50 0.45 0.43 0.44 0.44 0.46 0.46 0.47 0.53 0.67 0.72 0.57 0.55 0.57 0.63 0.69 0.75 0.81 0.74 0.64 0.71 0.75 0.85 0.92 0.94 1.02
0.19 0.19 0.18 0.17 0.19 0.20 0.23 0.27 0.31 0.36 0.41 0.45 0.46 0.40 0.37 0.39 0.42 0.44 0.43 0.50 0.55 0.52 0.51 0.52 0.52 0.51 0.58 0.57 0.47 0.50 0.52 0.57 0.62 0.70 0.79 0.85 0.77 0.77 0.87 0.87 0.90 0.86 0.83
0.11 0.11 0.10 0.10 0.10 0.10 0.11 0.12 0.14 0.15 0.16 0.16 0.18 0.17 0.17 0.19 0.21 0.23 0.30 0.41 0.47 0.50 0.53 0.56 0.57 0.52 0.50 0.51 0.44 0.45 0.52 0.56 0.61 0.62 0.68 0.76 0.74 0.88 0.96 0.97 1.10 1.08 0.96
0.08 0.08 0.07 0.08 0.08 0.08 0.07 0.05 0.04 0.05 0.05 0.05 0.05 0.07 0.07 0.08 0.09 0.12 0.16 0.23 0.24 0.29 0.39 0.42 0.45 0.48 0.48 0.59 0.48 0.48 0.51 0.60 0.70 0.71 0.69 0.82 0.82 0.89 0.88 0.87 1.10 1.12 1.00
0.08 0.08 0.08 0.08 0.09 0.09 0.08 0.07 0.05 0.04 0.04 0.05 0.06 0.06 0.06 0.06 0.07 0.08 0.10 0.14 0.15 0.20 0.23 0.27 0.33 0.41 0.49 0.60 0.58 0.62 0.63 0.69 0.81 0.79 0.70 0.65 0.76 0.65 0.72 0.76 0.81 1.02 1.01
0.08 0.08 0.07 0.08 0.09 0.08 0.08 0.08 0.08 0.06 0.05 0.06 0.06 0.05 0.06 0.07 0.07 0.07 0.09 0.11 0.12 0.14 0.16 0.17 0.22 0.31 0.38 0.46 0.52 0.54 0.59 0.66 0.75 0.80 0.68 0.65 0.72 0.57 0.55 0.57 0.68 0.84 0.95
0.06 0.07 0.08 0.08 0.08 0.08 0.08 0.08 0.08 0.08 0.07 0.06 0.05 0.06 0.07 0.06 0.07 0.08 0.10 0.10 0.11 0.13 0.15 0.18 0.25 0.32 0.38 0.43 0.41 0.38 0.41 0.49 0.58 0.62 0.66 0.65 0.61 0.55 0.50 0.50 0.57 0.65 0.75
0.06 0.06 0.08 0.08 0.09 0.09 0.09 0.10 0.09 0.07 0.06 0.06 0.06 0.06 0.07 0.06 0.07 0.08 0.09 0.11 0.11 0.13 0.17 0.23 0.28 0.34 0.37 0.40 0.38 0.41 0.44 0.44 0.46 0.46 0.47 0.50 0.53 0.56 0.55 0.51 0.55 0.61 0.71
0.08 0.10 0.11 0.10 0.09 0.11 0.11 0.13 0.13 0.09 0.06 0.05 0.06 0.06 0.06 0.06 0.06 0.06 0.06 0.08 0.09 0.12 0.19 0.26 0.31 0.32 0.31 0.28 0.29 0.40 0.50 0.56 0.62 0.67 0.61 0.62 0.63 0.60 0.55 0.52 0.52 0.57 0.63
0.07 0.09 0.10 0.10 0.09 0.09 0.11 0.12 0.14 0.14 0.13 0.09 0.06 0.05 0.05 0.06 0.07 0.07 0.07 0.07 0.09 0.13 0.16 0.16 0.19 0.20 0.20 0.21 0.23 0.30 0.40 0.50 0.62 0.78 0.81 0.84 0.86 0.80 0.70 0.61 0.53 0.48 0.50